Skip Page Navigation
NASA JPL Caltech
NASA Logo - Jet Propulsion Laboratory + View the NASA Portal
+ Near-Earth Object (NEO) Program
Search JPL
JPL Home Earth Solar System Stars & Galaxies Technology
JPL Solar System Dynamics
BODIES ORBITS EPHEMERIDES TOOLS PHYSICAL DATA DISCOVERY FAQ SITE MAP
JPL Small-Body Database Browser
Search: [ help ]  
18327 (1985 CX1)
Classification: Main-belt Asteroid          SPK-ID: 2018327
Ephemeris | Orbit Diagram | Orbital Elements | Physical Parameters | Discovery Circumstances ]

[ show orbit diagram ]
Orbital Elements at Epoch 2457000.5 (2014-Dec-09.0) TDB
Reference: JPL 14 (heliocentric ecliptic J2000)
 Element Value Uncertainty (1-sigma)   Units 
e .07901737482470644 6.1531e-08  
a 2.230612043218672 9.8918e-09 AU
q 2.054354935311158 1.4043e-07 AU
i 2.570920915878784 5.473e-06 deg
node 220.0352695913682 0.00011325 deg
peri 330.9636795894741 0.00011684 deg
M 299.6684430285193 2.6289e-05 deg
tp 2457204.427841937522
(2015-Jun-30.92784194)
8.8902e-05 JED
period 1216.842839514507
3.33
8.0942e-06
2.216e-08
d
yr
n .2958475723484817 1.9679e-09 deg/d
Q 2.406869151126186 1.0673e-08 AU
  Orbit Determination Parameters
   # obs. used (total)      1065  
   data-arc span      15680 days (42.93 yr)  
   first obs. used      1972-04-19  
   last obs. used      2015-03-25  
   planetary ephem.      DE431  
   SB-pert. ephem.      SB431-BIG16  
   condition code      0  
   fit RMS      .52713  
   data source      ORB  
   producer      Otto Matic  
   solution date      2015-Apr-07 17:00:35  

Additional Information
 Earth MOID = 1.05556 AU 
 T_jup = 3.637 
[ show covariance matrix ]

Ephemeris | Orbit Diagram | Orbital Elements | Physical Parameters | Discovery Circumstances ]

Physical Parameter Table
Parameter Symbol Value Units Sigma Reference Notes
absolute magnitude H 14.8 mag n/a MPO244350  

18327 (1985 CX1)          Discovered 1985-Feb-12 by Debehogne, H. at La Silla
Reference: 20001111/Numbers.arcLast Updated: 2004-04-19

Alternate Designations
 1985 CX1 = 1972 HG1 = 1993 RY15 
Ephemeris | Orbit Diagram | Orbital Elements | Physical Parameters | Discovery Circumstances ]
ABOUT SSD CREDITS/AWARDS PRIVACY/COPYRIGHT GLOSSARY LINKS
FirstGov 2015-May-28 06:04 UT
(server date/time)  
NASA Home Page
Site Manager:   Ryan S. Park
Webmaster  Alan B. Chamberlin